Regional Weather Roundup
Issued by NWS Cleveland, OH

Home | Current Version | Previous Version | Graphics & Text | Print | Product List | Glossary On
Versions: 1 2 3 4 5 6 7 8 9 10 11 12 13 14 15 16 17 18 19 20 21 22 23 24 25 26 27 28 29 30 31 32 33 34 35 36 37 38 39 40 41 42 43 44 45 46 47 48 49 50
372
ASUS41 KCLE 280512
RWRCLE
OHIO REGIONAL WEATHER ROUNDUP
NATIONAL WEATHER SERVICE WILMINGTON, OH
100 AM EDT MON MAY 28 2018

NOTE: "FAIR" INDICATES FEW OR NO CLOUDS BELOW 12,000 FEET WITH NO
SIGNIFICANT WEATHER AND/OR OBSTRUCTIONS TO VISIBILITY.

OHZ001>008-015>018-024>027-034-035-043-044-280600-
   NORTHWEST OHIO

CITY           SKY/WX    TMP DP  RH WIND       PRES   REMARKS
DEFIANCE       FAIR      72  64  76 CALM      29.93S
FINDLAY        FAIR      73  65  75 S6        29.94R
TOLEDO EXPRESS FAIR      70  67  90 CALM      29.92S
TOLEDO EXEC    FAIR      72  67  84 SE6       29.93S
LIMA           FAIR      74  63  68 S7        29.95R
$$

OHZ009>014-019>023-028>033-038-089-280600-
   NORTHEAST OHIO

CITY           SKY/WX    TMP DP  RH WIND       PRES   REMARKS
CLE-HOPKINS    FAIR      74  68  81 S8        29.97R
CLE-LAKEFRONT  FAIR      76  66  71 S5        29.93S
CUY CO. ARPT   NOT AVBL
LORAIN-ELYRIA  FAIR      72  64  76 S6        29.96R
ASHTABULA      FAIR      66  65  96 CALM      29.97R
AKRON-CANTON   FAIR      72  65  78 CALM      29.99R
WOOSTER        FAIR      69  67  93 CALM      29.99R
MANSFIELD      FAIR      73  67  81 S8        29.99R
YOUNGSTOWN     FAIR      67  64  90 CALM      29.98R
$$

OHZ042-051>053-060>062-070>072-077>081-280600-
  SOUTHWEST OHIO

CITY           SKY/WX    TMP DP  RH WIND       PRES   REMARKS
CINC-COVINGTON MOCLDY    70  66  87 S8        29.96S
CINC-LUNKEN    FAIR      70  70 100 CALM      29.96S
HAMILTON       FAIR      70  69  97 CALM      29.96R
DAYTON         FAIR      75  69  81 S8        29.98R
WRIGHT-PAT AFB FAIR      74  67  79 SE3       29.96S
DAYTON GENERAL FAIR      74  67  78 S3        29.96S
WILMINGTON     FAIR      71  67  87 CALM      29.97S
$$

OHZ036-037-039>041-045>050-054>059-063>069-073>076-082>088-280600-
  CENTRAL AND SOUTHEAST OHIO

CITY           SKY/WX    TMP DP  RH WIND       PRES   REMARKS
COLUMBUS       FAIR      76  68  76 CALM      29.96S
OSU AIRPORT    FAIR      75  67  76 S3        29.97R
BOLTON FIELD   FAIR      71  67  90 S3        29.98S
RICKENBACK AFB FAIR      72  70  93 MISG      29.96S
NEWARK         FAIR      71  70  96 CALM      29.96F FOG
MARION         FAIR      73  67  81 S5        29.98R
LANCASTER      FAIR      71  70  96 CALM      29.97S
ZANESVILLE     FAIR      71  68  90 CALM      29.97S
NEW PHILLY     FAIR      69  67  93 CALM      29.98S
$$




USA.gov is the U.S. government's official web portal to all federal, state and local government web resources and services.